OBJECT Q, 66307

Orbit data source: Space-Track

You're viewing an Uncataloged Satellite

Recently launched and/or uncataloged satellites may have evolving metadata. Metadata may include but not limited to: Owner, Maufacturer, Bus, Motor, and Mission.

OBJECT Q, 66307 is a satellite in LEO that was launched on Sun, 02 Nov 2025 UTC via an FALCON 9 launch vehicle from the Air Force Eastern Test Range (AFETR). Unknown objects in Earth's orbit typically refer to objects detected orbiting the Earth but have not yet been identified or cataloged. These objects could be anything from previously untracked satellites, spent rocket stages, debris from satellite collisions, or even natural meteoroids temporarily captured by Earth's gravity.

Loading next visibility...
Identifier
66307, 2025-248Q
Orbit
LEO
Country
Flag of TBDTBD
Related business
None
Manufacturer
Unknown
Mission
Operational Commercial Communications
Bus & Motor
Unknown
Mass
Unknown
Launch date (UTC)
2025-11-02 (8 months ago)
Launch vehicle
FALCON 9
Launch site
Air Force Eastern Test Range (AFETR)
Object type
Unknown
Shape & HBR
Box, 0.1 m
Radar Cross Section
0.080 m², Small (<0.1 m²)

Expand to show TLE details & history
Last TLE update: 17 hours ago

TLE from 17 hours ago
0 OBJECT Q
1 66307U 25248Q   26171.18200572  .00014189  00000-0  53144-3 0  9998
2 66307  45.3915  97.6904 0009797  79.5197 280.6795 15.27234918 35069
Epoch: 2026-06-20T04:22Z
TLE epoch observation values (Epoch: 2026-06-20T04:22:05.294Z)
Latitude
-0.00004°
Longitude
123.768°
Altitude
482.886 km
Speed
7.626 km/s
True Right ascension
06h 30m 45s
True Declination
0° 00' 00"
Sunlit
Object was in daylight at epoch
Visualization orbit readout
Latitude
Unknown
Longitude
Unknown
Altitude
Unknown
Speed
Unknown
Apparent Right ascension
Unknown
Apparent Declination
Unknown
Sunlit
N/A
Visualization observer readout
Local Sidereal Time
08:33:33
Azimuth
Unknown
Elevation
Unknown
Doppler factor
Unknown
Orbital elements
Apogee altitude
492.35 km
Perigee altitude
478.901 km
Semi-major axis
6,863.763 km
Eccentricity
0.00098
Inclination
45.3915°
RAAN
97.6904°
Arg. of periapsis
79.5197°
True anomaly
280.56915°
Mean anomaly
280.6795°
Eccentric anomaly
280.62433°
Mean motion
3.8168 °/min
Orbital period
94.32 mins
BSTAR
0.00053144
Loading maneuver chart data...
Computing Atmospheric mass density...
Loading historical data...
Loading historical data...
Loading historical data...
Loading historical data...
Loading historical data...
Loading historical data...
Loading historical data...

Documentation

Showing up to 5 results
|